Regional Weather Roundup
Issued by NWS Sterling, VA

Home | Current Version | Previous Version | Text Only | Print | Product List | Glossary Off
Versions: 1 2 3 4 5 6 7 8 9 10 11 12 13 14 15 16 17 18 19 20 21 22 23 24 25 26 27 28 29 30 31 32 33 34 35 36 37 38 39 40 41 42 43 44 45 46 47 48 49 50

215
ASUS41 KLWX 021410
RWRLWX

REGIONAL WEATHER ROUNDUP
NATIONAL WEATHER SERVICE BALTIMORE MD/WASHINGTON DC
900 AM EST FRI DEC 02 2016

Note: "FAIR" indicates few or no clouds below 12,000 feet
with no significant weather and/or obstructions to visibility.
 TC=TEMPERATURE CELSIUS

 * =Non NWS site. Station does not report precipitation (e.g. rain,
    snow, etc.), thunder, or fog.

DCZ001-MDZ009-015-VAZ040>042-051-053>054-021500-
WASHINGTON METRO

CITY           SKY/WX    TMP DP  RH WIND       PRES   REMARKS
WASHINGTON NAT PTSUNNY   49  28  44 W10       30.07S
DULLES         MOSUNNY   45  27  49 W8        30.07R
ANDREWS AFB    MOSUNNY   47  26  44 W14       30.05S
FT BELVOIR     PTSUNNY   48  27  44 W10       30.07S
QUANTICO       PTSUNNY   42  34  73 W3        30.10R
COLLEGE PARK*  MOSUNNY   45  27  49 W13G20    30.05S
LEESBURG*      CLOUDY    45  32  61 W13G20    30.08R
MANASSAS*      SUNNY     36  32  87 CALM      30.08
GAITHERSBURG*  PTSUNNY   43  25  49 W13G18    30.09R

$$

MDZ006>007-011-014-021500-
BALTIMORE METRO

CITY           SKY/WX    TMP DP  RH WIND       PRES   REMARKS
BWI AIRPORT    PTSUNNY   45  28  51 W16       30.04R
MD SCIENCE CTR   N/A     47  26  44 MISG      30.05R
MARTIN STATE   PTSUNNY   46  30  53 W10G16    30.05R
ANNAPOLIS      MOSUNNY   48  28  46 W12G24    30.04R
FORT MEADE*    MOSUNNY   45  28  53 W13       30.07S

$$

MDZ012-015-019>023-021500-
MARYLAND EASTERN SHORE

CITY           SKY/WX    TMP DP  RH WIND       PRES   REMARKS
OCEAN CITY     SUNNY     44  32  62 W7        30.05R
SALISBURY      SUNNY     46  31  55 W10       30.05R
CAMBRIDGE*     SUNNY     45  30  57 W7        30.05S

$$

MDZ017>025-021500-
SOUTHERN MARYLAND

CITY           SKY/WX    TMP DP  RH WIND       PRES   REMARKS
PATUXENT RIVER MOSUNNY   45  33  63 W10       30.08R
ST INIGOES     SUNNY     45  37  73 W8        30.08R
LEONARDTOWN*   SUNNY     43  34  70 W6        30.09R

$$

MDZ003>005-021500-
NORTH CENTRAL MARYLAND

CITY           SKY/WX    TMP DP  RH WIND       PRES   REMARKS
FREDERICK*     MOSUNNY   43  30  61 W9G18     30.08R
HAGERSTOWN APT MOSUNNY   42  26  53 W9        30.04R
WESTMINSTER*   PTSUNNY   39  27  60 W8        30.02R

$$

MDZ501>502-021500-
WESTERN MARYLAND

CITY           SKY/WX    TMP DP  RH WIND       PRES   REMARKS
OAKLAND*       CLOUDY    28  25  86 W14G20    29.98R WCI  17
CUMBERLAND*    NOT AVBL

$$

VAZ025>031-021500-
SHENANDOAH VALLEY

CITY           SKY/WX    TMP DP  RH WIND       PRES   REMARKS
WINCHESTER*    CLOUDY    41  27  56 W7        30.06S
FRONT ROYAL*   CLOUDY    43  28  56 SW3       30.06R
LURAY*         CLOUDY    45  32  61 SW5       30.06S
NEW MARKET*    FAIR      41  28  58 CALM      30.06R
STAUNTON*      SUNNY     40  30  68 SW5       30.09R
WAYNESBORO*    FAIR      40  28  61 W7        30.07S

$$

WVZ021-048>050-054>055-021500-
EASTERN WEST VIRGINIA PANHANDLE

CITY           SKY/WX    TMP DP  RH WIND       PRES   REMARKS
MARTINSBURG    MOSUNNY   41  26  55 W15       30.06R
PETERSBURG*    PTSUNNY   44  30  59 W9        30.07S

$$

VAZ036>039-050-021500-
CENTRAL FOOTHILLS

CITY           SKY/WX    TMP DP  RH WIND       PRES   REMARKS
CHARLOTTESVILL SUNNY     42  29  59 VRB3      30.08R
CULPEPER*      SUNNY     41  34  75 CALM      30.09S
ORANGE*          N/A     37  32  81 CALM      30.09S
GORDONSVILLE*  FAIR      37  31  78 SW5       30.08S
WARRENTON*     FAIR      41  30  65 CALM      30.07S

$$

VAZ055>057-021500-
NORTH AND CENTRAL PIEDMONT

CITY           SKY/WX    TMP DP  RH WIND       PRES   REMARKS
FREDERICKSBRG* SUNNY     40  35  80 CALM      30.09S
STAFFORD*      SUNNY     37  33  86 CALM      30.13S

$$

NCZ024-NYZ072-PAZ021-071-VAZ022-071-021500-
OTHER REGIONAL OBSERVATIONS

CITY           SKY/WX    TMP DP  RH WIND       PRES   REMARKS
NEW YORK CITY  MOSUNNY   42  28  57 VRB7      29.94R
PHILADELPHIA   PTSUNNY   45  28  51 W15       29.99R
PITTSBURGH     CLOUDY    37  28  70 SW9       30.04R
ROANOKE        MOSUNNY   44  27  51 W15G24    30.13R
RICHMOND       MOSUNNY   42  32  67 W5        30.10R
RALEIGH        MOSUNNY   43  33  68 CALM      30.15R

$$

ANZ530>537-021500-
MARINE OBSERVATIONS

STATION/POSITION TIME  TEMP    WIND        PRES
                       AIR SEA DIR/SP/G
                 (UTC) (F)     (DEG/KT/KT) (MB)
THOMAS PT LIGHT  1400   46 50  290/ 19/ 23   N/A
BALT KEY BRIDGE  1348   45     250/ 17/ 20 1016.9R
COVE POINT       1348   44     280/  9/ 12 1018.8R
LEWISETTA        1348   43 52  260/  9/ 10 1018.7R
SOLOMONS ISLAND  1336   47 52  260/  7/ 10   N/A
PINEY POINT      1348          270/  9/ 11   N/A

$$





USA.gov is the U.S. government's official web portal to all federal, state and local government web resources and services.